Location: Unspecified
(50.7218°N, 3.5336°W)
Time: 13:03:59
(UTC+02:00)

ISS - Visible Passes

Search period start: 21 May 2018 00:00
Search period end: 31 May 2018 00:00
Orbit: 402 x 407 km, 51.6° (Epoch: 22 May)

Date Brightness Start Highest point End Pass type
(mag) Time Alt. Az. Time Alt. Az. Time Alt. Az.
21 May -3.9 00:43:09 10° WSW 00:46:21 57° SSE 00:49:35 10° ENE visible
21 May -3.7 02:19:35 10° W 02:22:51 73° N 02:26:07 10° E visible
21 May -4.0 03:56:07 10° WNW 03:59:24 76° SSW 04:02:40 10° ESE visible
21 May -2.5 05:32:58 10° W 05:35:33 21° SW 05:38:06 10° SSE visible
21 May -3.4 23:51:11 10° SW 23:54:16 39° SSE 23:57:21 10° E visible
22 May -3.8 01:27:21 10° W 01:30:38 81° N 01:33:54 10° E visible
22 May -3.9 03:03:56 10° WNW 03:07:13 86° NNE 03:10:29 10° E visible
22 May -3.2 04:40:33 10° W 04:43:31 32° SSW 04:46:29 10° SE visible
22 May -2.8 22:59:26 10° SSW 23:02:12 26° SSE 23:05:00 10° E visible
23 May -4.0 00:35:09 10° WSW 00:38:25 85° SSE 00:41:42 10° ENE visible
23 May -3.7 02:11:43 10° W 02:14:59 76° N 02:18:16 10° E visible
23 May -3.7 03:48:15 10° W 03:51:26 48° SSW 03:54:35 10° SE visible
23 May -1.8 05:26:06 10° WSW 05:27:18 12° SW 05:28:30 10° SSW visible
23 May -3.9 23:43:00 10° WSW 23:46:14 64° SSE 23:49:29 10° ENE visible
24 May -3.7 01:19:28 10° W 01:22:44 73° N 01:26:01 10° E visible
24 May -4.0 02:56:00 10° WNW 02:59:16 68° SSW 03:00:16 40° SE visible
24 May -3.5 22:50:56 10° SW 22:54:05 44° SSE 22:57:14 10° E visible
25 May -3.7 00:27:12 10° W 00:30:29 77° N 00:33:45 10° E visible
25 May -4.0 02:03:46 10° WNW 02:07:04 88° SSW 02:08:14 37° ESE visible
25 May -1.4 03:40:27 10° W 03:40:49 12° W 03:40:49 12° W visible
25 May -3.9 23:34:57 10° WSW 23:38:14 89° N 23:41:32 10° ENE visible
26 May -3.8 01:11:31 10° W 01:14:48 78° N 01:17:08 18° E visible
26 May -2.4 02:48:04 10° W 02:49:44 25° W 02:49:44 25° W visible
27 May -3.6 00:19:15 10° W 00:22:31 73° N 00:25:48 10° E visible
27 May -3.9 01:55:47 10° WNW 01:58:53 60° SW 01:58:53 60° SW visible
27 May -3.6 23:26:57 10° W 23:30:14 75° N 23:33:30 10° E visible
28 May -4.0 01:03:30 10° WNW 01:06:47 82° SSW 01:08:08 33° ESE visible
28 May -1.4 02:40:15 10° W 02:40:45 13° W 02:40:45 13° W visible
29 May -3.8 00:11:14 10° W 00:14:31 82° N 00:17:26 12° E visible
29 May -2.8 01:47:48 10° W 01:50:03 31° WSW 01:50:03 31° WSW visible
29 May -3.6 23:18:55 10° W 23:22:12 74° N 23:25:28 10° E visible
30 May -3.7 00:55:27 10° W 00:58:39 54° SSW 00:59:23 42° SSE visible
